Location: Cervera
(40.0518°N, 4.8107°W)
Time: 11:07:27
(UTC+00:00)

Daily predictions for brighter satellites

Satellite Brightness Start Highest point End
(mag) Time Altitude Azimuth Time Altitude Azimuth Time Altitude Azimuth
SL-12 R/B(2) 4.3 17:16:32 10° SSW 17:24:04 67° ESE 17:33:09 10° NE
BREEZE-M DEB (TANK) 2.4 17:25:27 10° W 17:27:34 42° NNW 17:31:15 10° NE
Cosmos 540 Rocket 4.2 17:26:33 10° N 17:31:01 29° ENE 17:35:27 10° ESE
Cosmos 1812 3.4 17:31:51 10° SE 17:34:03 20° E 17:36:16 10° NE
Cosmos 1975 Rocket 3.2 17:30:38 10° N 17:34:55 53° E 17:39:11 10° SSE
Cosmos 1763 Rocket 3.9 17:31:43 10° N 17:36:35 39° ENE 17:41:21 10° SE
CORIOLIS 4.1 17:32:01 10° SSE 17:37:21 71° ENE 17:42:41 10° N
Cosmos 1140 Rocket 4.1 17:33:25 10° SSW 17:38:31 60° WNW 17:43:38 10° NNE
OAO 2 Rocket 4.1 17:35:16 10° WSW 17:40:04 48° S 17:44:58 10° ESE
SMAP 3.0 17:36:16 10° SSE 17:40:53 71° ENE 17:45:31 10° N
Cosmos 44 Rocket 3.3 17:36:43 10° SSW 17:41:22 61° ESE 17:46:10 10° NE
OAO 3 Rocket 4.0 17:37:04 10° WSW 17:41:28 41° S 17:45:48 10° ESE
IRS-1C 4.1 17:37:14 10° SSE 17:42:27 60° ENE 17:47:42 10° N
Cosmos 2058 4.0 17:41:41 10° NNE 17:44:47 21° ENE 17:47:52 10° SE
Cosmos 1943 Rocket 2.2 17:40:44 10° SSW 17:46:19 71° ESE 17:51:53 10° NNE
SKYMED 2 4.3 17:48:14 10° NNE 17:52:09 32° E 17:56:02 10° SSE
Landsat 7 3.7 17:48:44 10° SSE 17:53:20 68° ENE 17:57:58 10° N
Helios 1A Rocket 3.9 17:51:57 14° ENE 17:53:37 19° E 17:56:05 10° SE
Cosmos 2082 Rocket 2.9 17:50:04 10° N 17:54:58 30° ENE 17:59:51 10° ESE
Cosmos 2278 Rocket 2.2 17:49:26 10° SSW 17:55:05 80° ESE 18:00:46 10° NNE
Tsikada Rocket 4.4 17:49:15 10° NNW 17:55:38 71° W 18:01:55 10° S
Aureole 3 Rocket 2.3 17:55:45 10° S 17:58:44 51° E 18:01:45 10° NNE
BREEZE-M DEB (TANK) 3.0 17:56:52 10° WSW 17:59:10 51° NNW 18:03:16 14° NE
Thor Agena Rocket 4.5 17:54:41 10° S 17:59:49 55° W 18:05:00 10° NNW
BREEZE-M DEB (TANK) 3.7 17:58:17 10° W 18:00:23 31° NNW 18:04:09 12° NE
Cosmos 2251 Rocket 3.5 18:00:49 10° S 18:06:00 64° ESE 18:11:16 10° NNE
SAR-Lupe-1 4.3 18:03:28 10° S 18:07:01 72° WSW 18:10:35 10° NNW
SL-16 R/B 4.3 18:03:07 10° N 18:08:31 31° WNW 18:13:53 10° WSW
YAOGAN 1 3.4 18:05:51 10° SE 18:09:28 28° ENE 18:13:05 10° NNE
Cosmos 371 Rocket 3.9 18:05:27 10° SSE 18:09:44 34° ESE 18:12:52 16° NE
Cosmos 304 Rocket 4.3 18:06:31 10° SSE 18:10:48 35° ESE 18:13:57 17° NE
SJ 16-02 1.6 18:08:18 10° S 18:12:23 45° ESE 18:15:42 15° NE
Resurs 1-3 4.1 18:17:29 10° SE 18:21:22 35° ENE 18:25:17 10° N
Nadezhda 4 Rocket 4.1 18:16:19 10° N 18:22:24 49° ENE 18:28:22 10° SSE
ARIANE 5 R/B 3.3 18:19:12 10° S 18:24:02 53° W 18:28:56 10° NNW
ATLAS 2AS CENTAUR R/B 4.1 18:20:17 10° N 18:24:21 16° NNE 18:25:35 16° NE
Cosmos 1862 3.3 18:21:05 10° N 18:24:33 42° E 18:28:00 10° SSE
Cosmos 1656 Rocket 4.2 18:21:26 10° SSE 18:26:22 35° ESE 18:28:33 26° ENE
COSMOS 2406 4.0 18:22:48 10° N 18:27:46 30° ENE 18:29:08 27° E
Cosmos 468 Rocket 3.9 18:24:49 10° NNW 18:29:59 62° ENE 18:35:03 10° SSE
Okean 2 Rocket 3.0 18:29:31 10° S 18:33:51 64° E 18:37:52 12° NNE
MOS 1 Rocket 3.3 18:31:35 10° S 18:35:50 71° W 18:40:16 10° NNW
Cosmos 1536 Rocket 3.5 18:32:21 10° N 18:36:46 64° E 18:41:06 10° SSE
Cosmos 1190 Rocket 4.1 18:31:36 10° SSW 18:36:53 80° WNW 18:42:12 10° NNE
USA 215 3.4 18:30:50 10° SE 18:37:21 75° SW 18:43:55 10° NW
Cosmos 676 Rocket 3.9 18:34:34 10° S 18:39:48 65° ESE 18:43:15 22° NNE
Cosmos 1428 Rocket 4.5 18:35:54 10° N 18:42:05 59° E 18:48:17 10° SSE
CZ-4 R/B 4.5 18:38:27 10° S 18:42:24 73° W 18:46:22 10° NNW
Cosmos 2344 4.4 18:36:08 10° NNW 18:43:35 38° NE 18:47:32 28° E
Cosmos 489 Rocket 4.5 18:37:48 10° N 18:43:57 56° ENE 18:50:01 10° SE
ATLAS 5 CENTAUR R/B 4.0 18:39:50 10° WNW 18:44:05 30° WSW 18:49:06 10° S
Geosat FO 4.1 18:44:22 67° SSW 18:44:35 73° WSW 18:47:28 10° NNW
Cosmos 1602 3.9 18:41:39 10° NNW 18:44:38 52° W 18:47:36 10° S
Meteor 2-3 Rocket 4.0 18:42:38 10° N 18:48:03 43° ENE 18:49:59 32° ESE
RESURS DK-1 3.3 18:44:17 10° NW 18:48:08 47° WSW 18:51:58 10° S
BlueWalker 3 2.6 18:45:37 10° SSW 18:48:22 36° SSE 18:48:22 36° SSE
ISS -1.5 18:47:35 10° WNW 18:49:50 17° NNW 18:50:07 17° N
Cosmos 1954 Rocket 4.1 18:44:34 10° SSW 18:49:51 76° WNW 18:54:18 15° NNE
SPOT 1/Viking Rocket 3.8 18:51:03 10° S 18:56:10 68° W 19:01:21 10° NNW
COSMO-SKYMED 1 2.9 18:57:48 17° N 19:00:54 59° WNW 19:04:56 10° SSW
USA 281 4.1 19:02:00 30° NE 19:02:00 30° NE 19:06:37 10° N
Cosmos 968 Rocket 3.9 18:56:45 10° S 19:00:38 42° SE 19:00:38 42° SE
Cosmos 1400 Rocket 3.7 19:00:03 10° SSW 19:03:42 44° WNW 19:05:52 21° NNW
Cosmos 1634 Rocket 4.0 19:01:30 10° SSE 19:07:32 52° E 19:07:38 52° E
DELTA 2 R/B (1) 3.8 19:02:34 10° SW 19:07:54 50° SSE 19:08:21 49° SE
Spot 4 Rocket 4.5 19:04:45 10° S 19:09:46 61° WSW 19:14:50 10° NNW
Cosmos 2034 Rocket 4.2 19:13:58 10° SSW 19:20:07 68° W 19:26:21 10° N
OAO 3 Rocket 4.0 19:19:48 10° WSW 19:23:39 40° SSW 19:23:39 40° SSW
OAO 2 Rocket 4.3 19:19:36 10° W 19:24:15 37° SSW 19:24:28 37° S
Okean 1 Rocket 4.3 19:22:28 10° SSW 19:26:36 39° WNW 19:28:50 23° NNW
BREEZE-M DEB (TANK) 4.1 19:20:50 10° WNW 19:37:02 81° NNE 19:37:20 78° ENE
Cosmos 2082 Rocket 3.5 19:33:56 10° NW 19:39:04 38° WSW 19:44:12 10° S
Cosmos 1092 Rocket 3.9 19:33:04 10° N 19:39:20 85° W 19:39:48 77° SSW
Cosmos 2026 Rocket 4.2 19:39:38 10° NNW 19:45:40 66° W 19:51:45 10° S
Cosmos 2369 Rocket 3.4 19:43:22 10° SSW 19:46:11 31° SSW 19:46:11 31° SSW
SJ 16-02 4.0 19:48:04 10° W 19:50:45 16° WNW 19:52:17 14° NW
COSMOS 2406 4.5 20:06:51 10° NW 20:11:15 37° W 20:11:15 37° W
ATLAS 2AS CENTAUR R/B 4.1 20:10:03 10° NNW 20:13:01 27° NNW 20:13:01 27° NNW
